Regional Weather Roundup
Issued by NWS Midland/Odessa, TX

Home | Current Version | Previous Version | Text Only | Print | Product List | Glossary On
Versions: 1 2 3 4 5 6 7 8 9 10 11 12 13 14 15 16 17 18 19 20 21 22 23 24 25 26 27 28 29 30 31 32 33 34 35 36 37 38 39 40 41 42 43 44 45 46 47 48 49 50
000
ASUS44 KMAF 272010
RWRMAF
MIDLAND AREA WEATHER ROUNDUP
NATIONAL WEATHER SERVICE MIDLAND TX
300 PM CDT SAT AUG 27 2016

...IN SOUTHWEST TEXAS AND SOUTHEAST NEW MEXICO...

CITY           SKY/WX    TMP DP  RH WIND       PRES   REMARKS
ALPINE         CLOUDY    79  60  51 E10       30.17F
ANDREWS        NOT AVBL
ARTESIA        SUNNY     84  59  42 VRB6G14   30.05F
BIG SPRING     MOSUNNY   91  62  37 S3        30.04F
CARLSBAD       SUNNY     83  60  45 S5        30.03F
DRYDEN           N/A     85  68  56 VRB6      30.00F
FORT STOCKTON  SUNNY     88  61  40 W5        30.04F
GUAD PASS      SUNNY     81  59  47 SW8       30.19F
HOBBS          MOSUNNY   84  61  45 S7        30.08F
MARFA          SUNNY    N/A N/A N/A E7        30.15F
MIDLAND AIRPK  SUNNY     91  55  28 S8G18     30.03F
MIDLAND INTL   SUNNY     88  60  38 S7        30.03F
ODESSA         MOSUNNY   88  59  37 SE10      30.04F
PECOS          SUNNY     87  60  40 CALM      30.00F
PRESIDIO       NOT AVBL
SEMINOLE       SUNNY     86  57  37 S6        30.07F
SNYDER           N/A     87  65  48 SW8       30.03F
WINK           SUNNY     88  61  40 S6        30.01F
$$
...OTHER STATIONS IN TEXAS...

CITY           SKY/WX    TMP DP  RH WIND       PRES   REMARKS
ABILENE        CLOUDY    92  64  39 E3        30.00F
AMARILLO       SUNNY     86  59  39 S15G22    30.07F
AUSTIN         MOSUNNY   91  71  51 E7        29.95F
BROWNSVILLE    PTSUNNY   90  73  57 NE10      29.91F
CORPUS CHRISTI MOSUNNY   94  74  52 E13G20    29.91F HX 104
DALLAS FTW     PTSUNNY   89  68  49 E7        29.96F
DEL RIO        SUNNY     91  68  46 SE10      29.94F
EL PASO        MOSUNNY   88  58  36 VRB3      30.04F
HOUSTON INT    PTSUNNY   90  72  55 NE9       29.93F
LUBBOCK        MOSUNNY   87  59  38 S7        30.06F
SAN ANGELO     PTSUNNY   79  66  64 SW24G32   30.00F
SAN ANTONIO    PTSUNNY   89  70  53 E3        29.97F
WACO           MOSUNNY   89  71  55 SE3       29.96F
WICHITA FALLS  NOT AVBL
$$
...OTHER LOCATIONS IN NEW MEXICO...

CITY           SKY/WX    TMP DP  RH WIND       PRES   REMARKS
ALAMAGORDO     SUNNY     84  55  37 CALM      30.09F
ALBUQUERQUE    MOSUNNY   81  44  27 VRB5      30.13F
CANNON AFB     SUNNY     87  53  30 S9        30.08F
CLOVIS         MOSUNNY   84  57  39 S12       30.09F
HOLLOMAN AFB   MOSUNNY   84  60  44 W5        30.06F
ROSWELL        SUNNY     86  57  37 VRB6      30.05F
RUIDOSO          N/A     72  50  46 SE21      30.27F
SANTA FE       MOSUNNY   78  46  32 VRB6      30.20F
TRUTH OR CONSE PTSUNNY   81  52  36 S10       30.11F
TUCUMCARI      MOSUNNY   89  49  25 W12       30.04F
$$



USA.gov is the U.S. government's official web portal to all federal, state and local government web resources and services.